• Processing (Info)

  • MPEC 2014-W156: 2014 WF365

    The following Minor Planet Electronic Circular may be linked-to from your own Web pages, but must not otherwise be redistributed electronically.

    A form allowing access to any MPEC is at the bottom of this page.


    Read MPEC 2014-W155 Read MPEC 2014-W157


    M.P.E.C. 2014-W156                               Issued 2014 Nov. 29, 16:19 UT
    
         The Minor Planet Electronic Circulars contain information on unusual
             minor planets and routine data on comets.  They are published
       on behalf of Commission 20 of the International Astronomical Union by the
              Minor Planet Center, Smithsonian Astrophysical Observatory,
                              Cambridge, MA 02138, U.S.A.
    
                 Prepared using the Tamkin Foundation Computer Network
    
                                  MPC@CFA.HARVARD.EDU
                URL https://www.minorplanetcenter.net/    ISSN 1523-6714
    
                                      2014 WF365
    
    Observations:
         K14Wa5F* C2014 11 25.36144 02 22 48.699-14 15 18.09         20.3 wLEW156F51
         K14Wa5F  C2014 11 25.37396 02 22 47.369-14 15 24.15         20.3 wLEW156F51
         K14Wa5F  C2014 11 25.38648 02 22 46.048-14 15 30.26         20.6 wLEW156F51
         K14Wa5F  C2014 11 25.39897 02 22 44.727-14 15 36.21         20.5 wLEW156F51
         K14Wa5F |C2014 11 26.14107 02 21 28.51 -14 21 21.8          20.0 VuEW156807
         K14Wa5F |C2014 11 26.14497 02 21 28.08 -14 21 23.8          20.1 VuEW156807
         K14Wa5F |C2014 11 26.14888 02 21 27.67 -14 21 25.6          19.8 VuEW156807
         K14Wa5F _C2014 11 26.22647402 21 20.158-14 22 06.85         19.2 RtEW156568
         K14Wa5F _C2014 11 26.22772802 21 20.024-14 22 07.45         19.2 RtEW156568
         K14Wa5F _C2014 11 26.22898102 21 19.894-14 22 08.00         19.3 RtEW156568
         K14Wa5F |C2014 11 28.11248 02 18 08.51 -14 35 43.4          20.0 VuEW156807
         K14Wa5F |C2014 11 28.11633 02 18 08.10 -14 35 45.2          20.3 VuEW156807
         K14Wa5F |C2014 11 28.12022 02 18 07.69 -14 35 47.1          20.3 VuEW156807
         K14Wa5F KC2014 11 28.18178 02 18 01.69 -14 36 17.7          20.2 RqEW156H36
         K14Wa5F KC2014 11 28.19958 02 17 59.69 -14 36 26.9          20.0 RqEW156H36
         K14Wa5F KC2014 11 28.21736 02 17 57.81 -14 36 35.3          19.7 RqEW156H36
         K14Wa5F KC2014 11 28.25310602 17 54.24 -14 36 48.4          19.4 RqEW156448
         K14Wa5F KC2014 11 28.27571302 17 51.95 -14 36 57.6          20.1 RqEW156448
         K14Wa5F KC2014 11 28.29699902 17 49.83 -14 37 06.7          20.4 RqEW156448
         K14Wa5F KC2014 11 29.16311 02 16 23.78 -14 42 46.8          19.7 RoEW156291
         K14Wa5F KC2014 11 29.16588 02 16 23.50 -14 42 47.9          19.9 RoEW156291
         K14Wa5F KC2014 11 29.16866 02 16 23.21 -14 42 48.8          20.1 RoEW156291
    
    Observer details:
    291 LPL/Spacewatch II.  Observer A. F. Tubbiolo.  1.8-m f/2.7 reflector + CCD.
    448 Desert Moon Observatory.  Observer B. L. Stevens.  0.3-m
        Schmidt-Cassegrain + CCD.
    568 Mauna Kea.  Observers R. J. Wainscoat, A. Draginda.  Measurers M. Micheli,
        R. J. Wainscoat.  3.6-m Canada-France-Hawaii Telescope + CCD.
    807 Cerro Tololo.  Observers T. Linder, R. Holmes.  0.41-m f/11
        Ritchey-Chretien + CCD.
    F51 Pan-STARRS 1, Haleakala.  Observers B. Gibson, T. Goggia, N. Primak,
        A. Schultz, M. Willman.  Measurers K. Chambers, S. Chastel, L. Denneau,
        H. Flewelling, M. Huber, E. Magnier, E. Schunova, R. Wainscoat, C. Waters,
        R. Weryk.  1.8-m Ritchey-Chretien + CCD.
    H36 Sandlot Observatory, Scranton.  Observer G. Hug.  0.56-m reflector + CCD.
    
    Orbital elements:
    2014 WF365                                               Earth MOID = 0.2844 AU
    Epoch 2014 Dec. 9.0 TT = JDT 2457000.5                  MPC
    M 325.21688              (2000.0)            P               Q
    n   0.28560497     Peri.   15.02353     -0.99683249     +0.01281045
    a   2.2836290      Node   165.03436     -0.02139694     -0.99375088
    e   0.7622548      Incl.   17.69483     +0.07659732     -0.11088320
    P   3.45           H   17.2           G   0.15           U   8
    Residuals in seconds of arc
    141125 F51  0.0   0.0     141126 568  0.0   0.2+    141128 448  0.4-  0.1+
    141125 F51  0.1-  0.0     141126 568  0.0   0.2+    141128 448  0.1+  0.0
    141125 F51  0.0   0.1-    141128 807  0.3+  0.4+    141128 448  1.0+  0.6-
    141125 F51  0.1+  0.0     141128 807  0.1+  0.2+    141129 291  0.0   0.0
    141126 807  0.2+  0.1+    141128 807  0.0   0.1-    141129 291  0.0   0.0
    141126 807  0.1-  0.1-    141128 H36 (2.3+  2.3+)   141129 291  0.1-  0.1+
    141126 807  0.1-  0.1-    141128 H36  0.2-  0.4+
    141126 568  0.0   0.2+    141128 H36  1.0-  0.8-
    
    Ephemeris:
    2014 WF365               a,e,i = 2.28, 0.76, 18                  q = 0.5429
    Date    TT    R. A. (2000) Decl.     Delta      r     Elong.  Phase     V
    2014 10 30    03 06 48.3 -08 40 56   1.3438  2.2801   154.4    10.9    20.3
    ...
    2014 11 14    02 42 43.4 -12 16 33   1.2386  2.1459   148.6    13.9    20.1
    ...
    2014 11 22    02 28 39.4 -13 45 34   1.2086  2.0711   140.9    17.5    20.1
    ...
    2014 11 28    02 18 19.9 -14 34 59   1.1965  2.0135   134.3    20.5    20.1
    2014 11 29    02 16 39.9 -14 41 39   1.1953  2.0037   133.2    21.0    20.1
    2014 11 30    02 15 01.2 -14 47 51   1.1942  1.9939   132.0    21.6    20.1
    ...
    2014 12 06    02 05 40.1 -15 15 21   1.1918  1.9344   125.1    24.6    20.2
    ...
    2014 12 14    01 54 58.4 -15 26 44   1.1966  1.8529   116.0    28.5    20.2
    ...
    2014 12 29    01 41 52.6 -14 39 01   1.2179  1.6926   100.0    34.9    20.2
    
    A. U. Tomatic                (C) Copyright 2014 MPC           M.P.E.C. 2014-W156
    

    Read MPEC 2014-W155 Read MPEC 2014-W157


    MPEC number:

    Enter an MPEC number in one of the following forms:

    • 1997-B01 (the full form)
    • J97B01 (the packed version of the full form)
    • B01 (the abbreviated form)